{"data":{"norad_id":59398,"intl_designator":"2024-064A","name":"STARLINK-31534","alt_names":[],"object_type":"PAYLOAD","status":"ACTIVE","operator":null,"country":"US","launch_date":"2024-04-05","launch_site_code":"AFETR","launch_vehicle":null,"mission":null,"orbit_class":"UNKNOWN","rcs_meters":null,"size_class":null,"mass_kg":null,"dimensions":null,"purposes":["comms"],"wikipedia_slug":null,"has_3d_model":false,"image_url":null,"decayed_at":null,"tle_current":{"epoch":"2026-09-21T19:21:40.808448Z","epoch_age_seconds":52006,"freshness":"FRESH","line1":"1 59398U 24064A   26264.80672232  .00000764  00000+0  37300-4 0  9993","line2":"2 59398  43.0048  28.2411 0001832 315.5420  44.5285 15.27592843139161","mean_motion":15.27592843,"eccentricity":0.0001832,"inclination_deg":43.0048,"raan_deg":28.2411,"arg_perigee_deg":315.542,"mean_anomaly_deg":44.5285,"bstar":3.73e-5,"rev_number":13916,"period_min":94.265956180576,"perigee_km":481.75367749924,"apogee_km":484.26760199444,"semimajor_km":6861.1476397468,"source":"CELESTRAK","updated_at":"2026-09-22T09:00:48.912678Z"}}}